Tracking 18980 objects as of 18-Feb-2018
HD Live streaming from Space Station
objects crossing your sky now

OTS 2

Track OTS 2 now!
OTS 2 is classified as:


NORAD ID: 10855
Int'l Code: 1978-044A
Perigee: 36,062.9 km
Apogee: 36,165.7 km
Inclination: 13.9 °
Period: 1,452.5 minutes
Semi major axis: 42485 km
RCS: 1 m2 (large)
Launch date: May 11, 1978
Source: European Space Agency (ESA)
Launch site: AIR FORCE EASTERN TEST RANGE (AFETR)
aabbcc
Your satellite tracking list
Your tracking list is empty




NASA's NSSDC Master Catalog

Two Line Element Set (TLE):
1 10855U 78044A   18047.18104771 -.00000194 +00000-0 +00000-0 0  9996
2 10855 013.8643 332.6656 0012103 297.8717 241.3297 00.99139186173820
Source of the keplerian elements: AFSPC